Overview Statistics Trail Chart Weather Telemetry Raw packets
 

This is the latest recevied weather packets stored in our database for station/object N7IGG. If no packets are shown the sender has not sent any weather packets the latest 10 day(s).

<< 42 43 44 45 46 47 48 >>
Time Temp. Humidity Pressure Rain* Wind** Luminosity Snow
1777886107 12.78° C 79% 1009.4 hPa 0 mm - 0 W/m² -
1777885804 13.33° C 79% 1009.6 hPa 0 mm - 0 W/m² -
1777885503 13.33° C 78% 1009.3 hPa 0 mm - 0 W/m² -
1777885200 13.33° C 77% 1009.3 hPa 0 mm - 0 W/m² -
1777884897 13.33° C 77% 1009.4 hPa 0 mm - 0 W/m² -
1777884593 13.89° C 76% 1009.5 hPa 0 mm - 0 W/m² -
1777884291 14.44° C 74% 1009.5 hPa 0 mm - 0 W/m² -
1777884006 15° C 73% 1009.4 hPa 0 mm - 0 W/m² -
1777883684 14.44° C 74% 1009.4 hPa 0 mm - 0 W/m² -
1777883379 14.44° C 75% 1009.4 hPa 0 mm - 0 W/m² -
1777883077 15° C 75% 1009.5 hPa 0 mm - 0 W/m² -
1777882773 15° C 76% 1009.2 hPa 0 mm - 0 W/m² -
1777882470 15° C 77% 1009.2 hPa 0 mm - 0 W/m² -
1777882166 14.44° C 78% 1009.6 hPa 0 mm - 0 W/m² -
1777881863 14.44° C 79% 1009.3 hPa 0 mm - 0 W/m² -
1777881559 14.44° C 79% 1009.6 hPa 0 mm - 0 W/m² -
1777881256 14.44° C 79% 1009.5 hPa 0 mm - 0 W/m² -
1777880954 14.44° C 79% 1009.5 hPa 0 mm - 0 W/m² -
1777880652 13.89° C 80% 1009.4 hPa 0 mm - 0 W/m² -
1777880350 13.89° C 80% 1009.5 hPa 0 mm - 0 W/m² -
1777880048 13.89° C 79% 1009.5 hPa 0 mm - 0 W/m² -
1777879746 13.33° C 79% 1009.6 hPa 0 mm - 0 W/m² -
1777879443 13.89° C 79% 1009.4 hPa 0 mm - 0 W/m² -
1777879139 13.89° C 79% 1009.6 hPa 0 mm - 0 W/m² -
1777878836 13.89° C 79% 1009.4 hPa 0 mm - 0 W/m² -

* Rain latest hour (hover to see other rain measurements)
** Current wind speed in m/s (hover to see current wind gust speed)